Location: Barcelona
(41.3830°N, 2.1830°E)
Time: 12:37:44
(UTC+01:00)

ISS - Pass Details

Date: 21 March 2019
Orbit: 408 x 411 km, 51.6° (Epoch: 24 March)

Event Time Altitude Azimuth Distance (km) Brightness Sun altitude
Rises 20:22:21 0° 221° (SW) 2,322 0.4 -15.3°
Reaches altitude 10° 20:24:27 10° 216° (SW) 1,464 -0.7 -15.7°
Maximum altitude 20:27:38 50° 140° (SE) 526 -3.6 -16.3°
Enters shadow 20:28:09 45° 106° (ESE) 570 -3.6 -16.4°
